GPS BIIR-08 (27663 NORAD) Tracking and Keplerian Element Data

This shows tracking and keplerian element data for the satellite.

Feedback or suggestion? Click here.




ElementValue
Catalog27663
NameGPS BIIR-08
Epoch Orbit16770
Epoch Day353.40733007
Epoch Year2025
RAAN222.113
Inclination54.9218
Eccentricity0.014769
Argument of Perigee51.8916
Mean Anonmoly156.0709
Mean Motion2.00570594
Decay Rate7.6E-07
L11 27663U 03005A 25353.40733007 .00000076 00000+0 00000+0 0 9995
L22 27663 54.9218 222.1130 0147690 51.8916 156.0709 2.00570594167704



Live tracking and technical data element details for GPS BIIR-08 (NORAD 27663). GPS BIIR-08 can be tracked NOW for your location showing map with azimuth and elevation plus other details from your city location.







IsCatalogInMostPopularTable: catalog: 27663, numindb: 427
Update: records affected: 1



GetName: 27663 GPS BIIR-08

Hit Count: updated at: Sat, 07 Mar 2026 06:45:19 GMT